Location: Boiro
(42.6475°N, 8.8834°W)
Time: 04:47:31
(UTC+02:00)

FENGYUN 1C DEB - Visible Passes

Search period start: 31 May 2023 00:00
Search period end: 10 June 2023 00:00
Orbit: 583 x 828 km, 98.9° (Epoch: 30 May)

Date Brightness Start Highest point End Pass type
(mag) Time Alt. Az. Time Alt. Az. Time Alt. Az.
31 May ? 01:25:46 55° SE 01:26:50 71° ENE 01:32:15 10° N visible
31 May ? 03:04:44 16° W 03:05:02 16° W 03:08:18 10° NW visible
01 Jun ? 00:31:03 19° E 00:33:13 25° ENE 00:37:34 10° N visible
01 Jun ? 02:10:00 47° WSW 02:10:35 48° W 02:15:51 10° NNW visible
02 Jun ? 01:15:17 45° ESE 01:16:36 57° ENE 01:21:55 10° N visible
02 Jun ? 02:54:13 20° W 02:54:37 20° W 02:58:34 10° NW visible
03 Jun ? 00:20:33 15° E 00:23:04 21° ENE 00:26:59 10° NNE visible
03 Jun ? 01:59:30 55° SW 02:00:16 61° WSW 02:05:40 10° NNW visible
04 Jun ? 01:04:47 36° ESE 01:06:22 46° ENE 01:11:32 10° N visible
04 Jun ? 02:43:44 25° WSW 02:44:14 25° W 02:48:41 10° NW visible
05 Jun ? 00:10:03 12° E 00:12:55 17° ENE 00:16:17 10° NNE visible
05 Jun ? 01:49:00 60° SSW 01:49:58 76° WSW 01:55:25 10° NNW visible
06 Jun ? 00:54:17 29° ESE 00:56:09 37° ENE 01:01:06 10° N visible
06 Jun ? 02:33:14 31° WSW 02:33:50 31° W 02:38:39 10° NW visible
07 Jun ? 00:00:07 10° E 00:02:46 14° ENE 00:05:25 10° NNE visible
07 Jun ? 01:38:31 57° SSE 01:39:41 87° ENE 01:45:07 10° NNW visible
07 Jun ? 03:17:28 13° W 03:18:00 13° W 03:20:20 10° WNW visible
08 Jun ? 00:43:48 23° ESE 00:45:57 30° ENE 00:50:36 10° N visible
08 Jun ? 02:22:45 37° WSW 02:23:29 39° W 02:28:31 10° NNW visible
08 Jun ? 23:51:10 10° ENE 23:52:38 11° NE 23:54:06 10° NE visible
09 Jun ? 01:28:02 50° SE 01:29:24 71° ENE 01:34:46 10° N visible
09 Jun ? 03:06:59 16° W 03:07:33 16° W 03:10:51 10° NW visible
